Almeria, Spain

7:42 PM CEST en Julio 16, 2018 (GMT +0200)
Almeria

Tiempo Historia de LEAM - Julio, 2018

Change the Weather History Date:

Jueves, Julio 12, 2018

  Actual Average Record
Temperature  
Temperatura media 74 ° F -  
Temperatura máxima 81 ° F 82 ° F 95 ° F (2006)
Temperatura mínima 68 ° F 70 ° F 68 ° F (2008)
Cooling Degree Days 10    
Growing Degree Days 24 (Base 50)    
Moisture  
Punto de rocío 67 ° F    
Average Humidity 77    
Maximum Humidity 88    
Minimum Humidity 63    
Precipitación  
Precipitación 0.00 pul 0.00 pul - ()
Presión al nivel del mar  
Presión al nivel del mar 29.91 pul    
Viento  
Velocidad del viento 6 mph ()    
Velocidad máxima del viento 10 mph    
Max Gust Speed -    
Visibilidad 9.7 Millas    
Eventos      
Averages and records for this station are not official NWS values.
T = Trace of Precipitation, MM = Missing Value Source: Averaged Metar Reports

Daily Weather History Graph

Daily Weather History Graph

Search for Another Location

Airport or City:

Astronomía

Jul. 12, 2018 Salida Puesta
Hora real 7:00 AM CEST 9:30 PM CEST
Crepúsculo civil 6:29 AM CEST 10:00 PM CEST
Crepúsculo náutico 5:52 AM CEST 10:37 PM CEST
Crepúsculo astronómico 5:11 AM CEST 11:18 PM CEST
Luna 6:12 AM CEST (7/12) 8:59 PM CEST (7/12)
Horas de luz 15h 30m
Horas de luz
14h 30m
Creciente menguante, 1% of the Moon is Illuminated
Jul 12
Creciente menguante
Jul 13
Nueva
Jul 19
Cuarto creciente
Jul 27
Luna llena
Ago 4
Cuarto menguante

Hourly Weather History & Observations

Hora (CEST) Temp. Punto de rocío Humedad Presión Visibilidad Wind Dir Velocidad del viento Velocidad de ráfagas Precip Eventos Condiciones
12:00 AM 74 ° F 67 ° F 73% 29.88 pul - ESE 5.8 mph - -  
12:00 AM 73.4 ° F 66.2 ° F 78% 29.86 pul 6.2 mi ESE 4.6 mph - N/A   Desconocido
12:30 AM 73.4 ° F 66.2 ° F 78% 29.86 pul 6.2 mi ENE 4.6 mph - N/A   Desconocido
1:00 AM 72 ° F 66 ° F 77% 29.88 pul - NE 6.9 mph - -  
1:00 AM 73.4 ° F 66.2 ° F 78% 29.86 pul 6.2 mi NE 5.8 mph - N/A   Desconocido
1:30 AM 71.6 ° F 66.2 ° F 83% 29.86 pul 6.2 mi ENE 8.1 mph - N/A   Desconocido
2:00 AM 71 ° F 66 ° F 80% 29.88 pul - ENE 6.9 mph - -  
2:00 AM 71.6 ° F 66.2 ° F 83% 29.89 pul 6.2 mi ENE 5.8 mph - N/A   Desconocido
2:30 AM 71.6 ° F 66.2 ° F 83% 29.89 pul 6.2 mi ENE 6.9 mph - N/A   Desconocido
3:00 AM 71 ° F 67 ° F 82% 29.88 pul - Este 9.2 mph - -  
3:00 AM 71.6 ° F 66.2 ° F 83% 29.89 pul 6.2 mi Este 8.1 mph - N/A   Desconocido
3:30 AM 69.8 ° F 66.2 ° F 88% 29.89 pul 6.2 mi Este 5.8 mph - N/A   Desconocido
4:00 AM 69.8 ° F 66.2 ° F 88% 29.86 pul 6.2 mi Este 6.9 mph - N/A   Desconocido
4:30 AM 69.8 ° F 64.4 ° F 83% 29.86 pul 6.2 mi ENE 6.9 mph - N/A   Desconocido
5:00 AM 69 ° F 65 ° F 84% 29.88 pul 19 mi NE 5.8 mph - -   Despejado
5:00 AM 69.8 ° F 64.4 ° F 83% 29.86 pul - NE 5.8 mph - N/A   Despejado
5:30 AM 69.8 ° F 64.4 ° F 83% 29.86 pul - NE 4.6 mph - N/A   Despejado
6:00 AM 68 ° F 65 ° F 85% 29.89 pul - ENE 6.9 mph - -  
6:00 AM 69.8 ° F 64.4 ° F 83% 29.89 pul - ENE 6.9 mph - N/A   Despejado
6:30 AM 69.8 ° F 64.4 ° F 83% 29.89 pul - NE 5.8 mph - N/A   Despejado
7:00 AM 69 ° F 64 ° F 81% 29.91 pul - NE 1.2 mph - -  
7:00 AM 69.8 ° F 64.4 ° F 83% 29.89 pul - Variable 2.3 mph - N/A   Despejado
7:30 AM 69.8 ° F 64.4 ° F 83% 29.92 pul - Sin viento Sin viento - N/A   Despejado
8:00 AM 71 ° F 65 ° F 76% 29.93 pul 19 mi ONO 2.3 mph - -   Despejado
8:00 AM 69.8 ° F 64.4 ° F 83% 29.92 pul - Variable 2.3 mph - N/A   Despejado
8:30 AM 73.4 ° F 64.4 ° F 73% 29.92 pul - Variable 2.3 mph - N/A   Despejado
9:00 AM 74 ° F 66 ° F 70% 29.94 pul - SSO 5.8 mph - -  
9:00 AM 73.4 ° F 64.4 ° F 73% 29.95 pul - SSO 3.5 mph - N/A   Despejado
9:30 AM 73.4 ° F 66.2 ° F 78% 29.95 pul - SSO 4.6 mph - N/A   Despejado
10:00 AM 76 ° F 67 ° F 66% 29.95 pul - SO 5.8 mph - -  
10:00 AM 75.2 ° F 66.2 ° F 73% 29.95 pul - SSO 4.6 mph - N/A   Despejado
10:30 AM 77.0 ° F 66.2 ° F 69% 29.95 pul - SSO 5.8 mph - N/A   Despejado
11:00 AM 78 ° F 68 ° F 63% 29.94 pul 19 mi SSO 8.1 mph - -   Despejado
11:00 AM 77.0 ° F 66.2 ° F 69% 29.95 pul - SSO 6.9 mph - N/A   Despejado
11:30 AM 77.0 ° F 68.0 ° F 74% 29.95 pul - SSO 8.1 mph - N/A   Despejado
12:00 PM 77.0 ° F 68.0 ° F 74% 29.95 pul - Sur 8.1 mph - N/A   Despejado
12:30 PM 77.0 ° F 68.0 ° F 74% 29.95 pul - SSO 8.1 mph - N/A   Despejado
1:00 PM 77.0 ° F 69.8 ° F 78% 29.95 pul - SO 8.1 mph - N/A   Despejado
1:30 PM 77.0 ° F 69.8 ° F 78% 29.95 pul - SO 9.2 mph - N/A   Despejado
2:00 PM 80 ° F 70 ° F 65% 29.95 pul 16 mi SSO 10.4 mph - -   Despejado
2:00 PM 78.8 ° F 69.8 ° F 74% 29.95 pul - SO 10.4 mph - N/A   Despejado
2:30 PM 78.8 ° F 69.8 ° F 74% 29.95 pul - SO 9.2 mph - N/A   Despejado
3:00 PM 80 ° F 71 ° F 66% 29.94 pul - SSO 9.2 mph - -  
3:00 PM 78.8 ° F 69.8 ° F 74% 29.92 pul - SO 8.1 mph - N/A   Despejado
3:30 PM 78.8 ° F 69.8 ° F 74% 29.92 pul - SO 8.1 mph - N/A   Despejado
4:00 PM 78.8 ° F 69.8 ° F 74% 29.92 pul - SO 9.2 mph - N/A   Despejado
4:30 PM 78.8 ° F 69.8 ° F 74% 29.92 pul - SO 9.2 mph - N/A   Despejado
5:00 PM 80 ° F 70 ° F 64% 29.91 pul 12 mi SSO 10.4 mph - -   Despejado
5:00 PM 78.8 ° F 69.8 ° F 74% 29.92 pul - SSO 9.2 mph - N/A   Despejado
5:30 PM 78.8 ° F 69.8 ° F 74% 29.89 pul - SO 8.1 mph - N/A   Despejado
6:00 PM 78.8 ° F 69.8 ° F 74% 29.89 pul - SO 9.2 mph - N/A   Despejado
6:30 PM 77.0 ° F 69.8 ° F 78% 29.89 pul - SSO 8.1 mph - N/A   Despejado
7:00 PM 80 ° F 71 ° F 66% 29.90 pul - SSO 6.9 mph - -  
7:00 PM 78.8 ° F 69.8 ° F 74% 29.89 pul - SSO 5.8 mph - N/A   Despejado
7:30 PM 78.8 ° F 69.8 ° F 74% 29.89 pul - SO 5.8 mph - N/A   Despejado
8:00 PM 78 ° F 71 ° F 72% 29.91 pul 12 mi SSO 5.8 mph - -   Despejado
9:00 PM 75.2 ° F 69.8 ° F 83% 29.92 pul - SSO 3.5 mph - N/A   Despejado
9:30 PM 75.2 ° F 69.8 ° F 83% 29.95 pul - Variable 1.2 mph - N/A   Despejado
10:00 PM 74 ° F 70 ° F 83% 29.96 pul - SO 2.3 mph - -  
10:30 PM 75.2 ° F 69.8 ° F 83% 29.95 pul - OSO 3.5 mph - N/A   Despejado
11:00 PM 75.2 ° F 69.8 ° F 83% 29.95 pul - Variable 2.3 mph - N/A   Despejado
11:30 PM 75.2 ° F 69.8 ° F 83% 29.95 pul 6.2 mi Variable 1.2 mph - N/A   Desconocido